DMSP 5D-2 F13 DEB, 40478

Orbit data source: Space-Track

DMSP 5D-2 F13 DEB, 40478 is space debris in SSO originally from a launch on Fri, 24 Mar 1995 UTC launched from the Air Force Western Test Range (AFWTR). Debris objects in space refer to the collection of defunct objects orbiting the Earth. Examples of debris include non-operational satellites, rocket bodies, and fragments generated from explosions, collisions, or faulty payload assembly.

Loading next visibility...
Identifier
40478, 1995-015BW
Orbit
SSO
Country
Flag of USUS
Related business
Manufacturer
Unknown
Mission
Spacecraft
Bus & Motor
Unknown
Mass
Unknown
Launch date (UTC)
1995-03-24 (31 years ago)
Launch vehicle
Unknown
Launch site
Air Force Western Test Range (AFWTR)
Object type
Payload
Rocket body
Debris
Shape & HBR
Unknown shape, 0.1 m
Radar Cross Section
Small (<0.1 m²)

Expand to show TLE details & history
Last TLE update: 2 weeks ago

TLE from 2 weeks ago
0 DMSP 5D-2 F13 DEB
1 40478U 95015BW  26162.10302438  .00002330  00000-0  11738-2 0  9991
2 40478  98.9950 113.7674 0062384 215.0166 144.6898 14.16352856576287
Epoch: 2026-06-11T02:28Z
TLE epoch observation values (Epoch: 2026-06-11T02:28:21.306Z)
Latitude
-0.00004°
Longitude
177.227°
Altitude
877.448 km
Speed
7.395 km/s
True Right ascension
07h 35m 04s
True Declination
0° 00' 00"
Sunlit
Object was in daylight at epoch
Visualization orbit readout
Latitude
Unknown
Longitude
Unknown
Altitude
Unknown
Speed
Unknown
Apparent Right ascension
Unknown
Apparent Declination
Unknown
Sunlit
N/A
Visualization observer readout
Local Sidereal Time
15:00:30
Azimuth
Unknown
Elevation
Unknown
Doppler factor
Unknown
Orbital elements
Apogee altitude
879.889 km
Perigee altitude
789.893 km
Semi-major axis
7,213.028 km
Eccentricity
0.00624
Inclination
98.995°
RAAN
113.7674°
Arg. of periapsis
215.0166°
True anomaly
145.10038°
Mean anomaly
144.6898°
Eccentric anomaly
144.89535°
Mean motion
3.54296 °/min
Orbital period
101.61 mins
BSTAR
0.0011738
Loading maneuver chart data...
Computing Atmospheric mass density...

Documentation

Showing up to 5 results
|